Year,Month,Day,Hour,Minute,Value (Times are PST for temperature in C)
2008,07,08,00,00,14.20
2008,07,08,00,01,14.20
2008,07,08,00,02,14.10
2008,07,08,00,03,14.10
2008,07,08,00,04,14.10
2008,07,08,00,05,14.10
2008,07,08,00,06,14.10
2008,07,08,00,07,14.10
2008,07,08,00,08,14.10
2008,07,08,00,09,14.00
2008,07,08,00,10,14.00
2008,07,08,00,11,14.00
2008,07,08,00,12,14.00
2008,07,08,00,13,14.00
2008,07,08,00,14,13.90
2008,07,08,00,15,13.90
2008,07,08,00,16,13.90
2008,07,08,00,17,13.90
2008,07,08,00,18,13.90
2008,07,08,00,19,13.80
2008,07,08,00,20,13.80
2008,07,08,00,21,13.80
2008,07,08,00,22,13.70
2008,07,08,00,23,13.70
2008,07,08,00,24,13.70
2008,07,08,00,25,13.70
2008,07,08,00,26,13.70
2008,07,08,00,27,13.70
2008,07,08,00,28,13.70
2008,07,08,00,29,13.70
2008,07,08,00,30,13.60
2008,07,08,00,31,13.60
2008,07,08,00,32,13.60
2008,07,08,00,33,13.60
2008,07,08,00,34,13.60
2008,07,08,00,35,13.60
2008,07,08,00,36,13.60
2008,07,08,00,37,13.60
2008,07,08,00,38,13.50
2008,07,08,00,39,13.50
2008,07,08,00,40,13.50
2008,07,08,00,41,13.50
2008,07,08,00,42,13.50
2008,07,08,00,43,13.50
2008,07,08,00,44,13.50
2008,07,08,00,45,13.50
2008,07,08,00,46,13.50
2008,07,08,00,47,13.50
2008,07,08,00,48,13.40
2008,07,08,00,49,13.40
2008,07,08,00,50,13.40
2008,07,08,00,51,13.40
2008,07,08,00,52,13.40
2008,07,08,00,53,13.40
2008,07,08,00,54,13.50
2008,07,08,00,55,13.50
2008,07,08,00,56,13.50
2008,07,08,00,57,13.50
2008,07,08,00,58,13.50
2008,07,08,00,59,13.50
2008,07,08,01,00,13.50
2008,07,08,01,01,13.50
2008,07,08,01,02,13.40
2008,07,08,01,03,13.40
2008,07,08,01,04,13.40
2008,07,08,01,05,13.40
2008,07,08,01,06,13.40
2008,07,08,01,07,13.40
2008,07,08,01,08,13.40
2008,07,08,01,09,13.40
2008,07,08,01,10,13.40
2008,07,08,01,11,13.40
2008,07,08,01,12,13.40
2008,07,08,01,13,13.30
2008,07,08,01,14,13.30
2008,07,08,01,15,13.30
2008,07,08,01,16,13.30
2008,07,08,01,17,13.30
2008,07,08,01,18,13.30
2008,07,08,01,19,13.30
2008,07,08,01,20,13.30
2008,07,08,01,21,13.30
2008,07,08,01,22,13.30
2008,07,08,01,23,13.30
2008,07,08,01,24,13.20
2008,07,08,01,25,13.20
2008,07,08,01,26,13.20
2008,07,08,01,27,13.20
2008,07,08,01,28,13.20
2008,07,08,01,29,13.20
2008,07,08,01,30,13.10
2008,07,08,01,31,13.10
2008,07,08,01,32,13.10
2008,07,08,01,33,13.10
2008,07,08,01,34,13.10
2008,07,08,01,35,13.10
2008,07,08,01,36,13.10
2008,07,08,01,37,13.10
2008,07,08,01,38,13.10
2008,07,08,01,39,13.00
2008,07,08,01,40,13.00
2008,07,08,01,41,13.00
2008,07,08,01,42,13.00
2008,07,08,01,43,13.00
2008,07,08,01,44,13.00
2008,07,08,01,45,13.00
2008,07,08,01,46,12.90
2008,07,08,01,47,12.90
2008,07,08,01,48,12.90
2008,07,08,01,49,12.90
2008,07,08,01,50,12.90
2008,07,08,01,51,12.90
2008,07,08,01,52,12.80
2008,07,08,01,53,12.80
2008,07,08,01,54,12.80
2008,07,08,01,55,12.80
2008,07,08,01,56,12.80
2008,07,08,01,57,12.80
2008,07,08,01,58,12.80
2008,07,08,01,59,12.80
2008,07,08,02,00,12.80
2008,07,08,02,01,12.80
2008,07,08,02,02,12.80
2008,07,08,02,03,12.80
2008,07,08,02,04,12.80
2008,07,08,02,05,12.80
2008,07,08,02,06,12.70
2008,07,08,02,07,12.70
2008,07,08,02,08,12.70
2008,07,08,02,09,12.70
2008,07,08,02,10,12.70
2008,07,08,02,11,12.70
2008,07,08,02,12,12.70
2008,07,08,02,13,12.70
2008,07,08,02,14,12.70
2008,07,08,02,15,12.70
2008,07,08,02,16,12.70
2008,07,08,02,17,12.60
2008,07,08,02,18,12.60
2008,07,08,02,19,12.60
2008,07,08,02,20,12.60
2008,07,08,02,21,12.60
2008,07,08,02,22,12.60
2008,07,08,02,23,12.60
2008,07,08,02,24,12.60
2008,07,08,02,25,12.60
2008,07,08,02,26,12.60
2008,07,08,02,27,12.60
2008,07,08,02,28,12.60
2008,07,08,02,29,12.60
2008,07,08,02,30,12.60
2008,07,08,02,31,12.60
2008,07,08,02,32,12.60
2008,07,08,02,33,12.60
2008,07,08,02,34,12.60
2008,07,08,02,35,12.60
2008,07,08,02,36,12.60
2008,07,08,02,37,12.60
2008,07,08,02,38,12.50
2008,07,08,02,39,12.50
2008,07,08,02,40,12.50
2008,07,08,02,41,12.50
2008,07,08,02,42,12.50
2008,07,08,02,43,12.50
2008,07,08,02,44,12.50
2008,07,08,02,45,12.50
2008,07,08,02,46,12.40
2008,07,08,02,47,12.40
2008,07,08,02,48,12.40
2008,07,08,02,49,12.40
2008,07,08,02,50,12.40
2008,07,08,02,51,12.40
2008,07,08,02,52,12.40
2008,07,08,02,53,12.40
2008,07,08,02,54,12.40
2008,07,08,02,55,12.40
2008,07,08,02,56,12.30
2008,07,08,02,57,12.30
2008,07,08,02,58,12.30
2008,07,08,02,59,12.30
2008,07,08,03,00,12.30
2008,07,08,03,01,12.30
2008,07,08,03,02,12.30
2008,07,08,03,03,12.30
2008,07,08,03,04,12.30
2008,07,08,03,05,12.30
2008,07,08,03,06,12.30
2008,07,08,03,07,12.30
2008,07,08,03,08,12.30
2008,07,08,03,09,12.30
2008,07,08,03,10,12.30
2008,07,08,03,11,12.30
2008,07,08,03,12,12.30
2008,07,08,03,13,12.30
2008,07,08,03,14,12.30
2008,07,08,03,15,12.30
2008,07,08,03,16,12.30
2008,07,08,03,17,12.30
2008,07,08,03,18,12.30
2008,07,08,03,19,12.30
2008,07,08,03,20,12.30
2008,07,08,03,21,12.30
2008,07,08,03,22,12.30
2008,07,08,03,23,12.30
2008,07,08,03,24,12.30
2008,07,08,03,25,12.30
2008,07,08,03,26,12.30
2008,07,08,03,27,12.30
2008,07,08,03,28,12.30
2008,07,08,03,29,12.30
2008,07,08,03,30,12.30
2008,07,08,03,31,12.30
2008,07,08,03,32,12.30
2008,07,08,03,33,12.30
2008,07,08,03,34,12.30
2008,07,08,03,35,12.30
2008,07,08,03,36,12.30
2008,07,08,03,37,12.20
2008,07,08,03,38,12.20
2008,07,08,03,39,12.20
2008,07,08,03,40,12.20
2008,07,08,03,41,12.20
2008,07,08,03,42,12.20
2008,07,08,03,43,12.10
2008,07,08,03,44,12.10
2008,07,08,03,45,12.10
2008,07,08,03,46,12.10
2008,07,08,03,47,12.00
2008,07,08,03,48,12.00
2008,07,08,03,49,12.00
2008,07,08,03,50,12.00
2008,07,08,03,51,11.90
2008,07,08,03,52,11.90
2008,07,08,03,53,11.90
2008,07,08,03,54,11.90
2008,07,08,03,55,11.90
2008,07,08,03,56,11.90
2008,07,08,03,57,11.90
2008,07,08,03,58,11.80
2008,07,08,03,59,11.80
2008,07,08,04,00,11.80
2008,07,08,04,01,11.80
2008,07,08,04,02,11.80
2008,07,08,04,03,11.80
2008,07,08,04,04,11.80
2008,07,08,04,05,11.80
2008,07,08,04,06,11.80
2008,07,08,04,07,11.70
2008,07,08,04,08,11.70
2008,07,08,04,09,11.70
2008,07,08,04,10,11.70
2008,07,08,04,11,11.70
2008,07,08,04,12,11.70
2008,07,08,04,13,11.70
2008,07,08,04,14,11.70
2008,07,08,04,15,11.80
2008,07,08,04,16,11.80
2008,07,08,04,17,11.80
2008,07,08,04,18,11.80
2008,07,08,04,19,11.80
2008,07,08,04,20,11.80
2008,07,08,04,21,11.70
2008,07,08,04,22,11.70
2008,07,08,04,23,11.70
2008,07,08,04,24,11.60
2008,07,08,04,25,11.60
2008,07,08,04,26,11.60
2008,07,08,04,27,11.60
2008,07,08,04,28,11.70
2008,07,08,04,29,11.70
2008,07,08,04,30,11.80
2008,07,08,04,31,11.80
2008,07,08,04,32,11.80
2008,07,08,04,33,11.80
2008,07,08,04,34,11.80
2008,07,08,04,35,11.80
2008,07,08,04,36,11.80
2008,07,08,04,37,11.80
2008,07,08,04,38,11.80
2008,07,08,04,39,11.80
2008,07,08,04,40,11.80
2008,07,08,04,41,11.80
2008,07,08,04,42,11.80
2008,07,08,04,43,11.80
2008,07,08,04,44,11.80
2008,07,08,04,45,11.80
2008,07,08,04,46,11.70
2008,07,08,04,47,11.70
2008,07,08,04,48,11.70
2008,07,08,04,49,11.70
2008,07,08,04,50,11.60
2008,07,08,04,51,11.60
2008,07,08,04,52,11.60
2008,07,08,04,53,11.60
2008,07,08,04,54,11.60
2008,07,08,04,55,11.60
2008,07,08,04,56,11.60
2008,07,08,04,57,11.60
2008,07,08,04,58,11.60
2008,07,08,04,59,11.60
2008,07,08,05,00,11.60
2008,07,08,05,01,11.60
2008,07,08,05,02,11.50
2008,07,08,05,03,11.40
2008,07,08,05,04,11.40
2008,07,08,05,05,11.40
2008,07,08,05,06,11.40
2008,07,08,05,07,11.40
2008,07,08,05,08,11.40
2008,07,08,05,09,11.40
2008,07,08,05,10,11.40
2008,07,08,05,11,11.40
2008,07,08,05,12,11.40
2008,07,08,05,13,11.40
2008,07,08,05,14,11.40
2008,07,08,05,15,11.40
2008,07,08,05,16,11.40
2008,07,08,05,17,11.40
2008,07,08,05,18,11.40
2008,07,08,05,19,11.40
2008,07,08,05,20,11.40
2008,07,08,05,21,11.40
2008,07,08,05,22,11.40
2008,07,08,05,23,11.40
2008,07,08,05,24,11.40
2008,07,08,05,25,11.40
2008,07,08,05,26,11.40
2008,07,08,05,27,11.40
2008,07,08,05,28,11.40
2008,07,08,05,29,11.40
2008,07,08,05,30,11.40
2008,07,08,05,31,11.40
2008,07,08,05,32,11.40
2008,07,08,05,33,11.40
2008,07,08,05,34,11.40
2008,07,08,05,35,11.40
2008,07,08,05,36,11.40
2008,07,08,05,37,11.40
2008,07,08,05,38,11.40
2008,07,08,05,39,11.40
2008,07,08,05,40,11.40
2008,07,08,05,41,11.40
2008,07,08,05,42,11.40
2008,07,08,05,43,11.40
2008,07,08,05,44,11.40
2008,07,08,05,45,11.40
2008,07,08,05,46,11.40
2008,07,08,05,47,11.40
2008,07,08,05,48,11.40
2008,07,08,05,49,11.40
2008,07,08,05,50,11.40
2008,07,08,05,51,11.40
2008,07,08,05,52,11.40
2008,07,08,05,53,11.40
2008,07,08,05,54,11.40
2008,07,08,05,55,11.40
2008,07,08,05,56,11.40
2008,07,08,05,57,11.50
2008,07,08,05,58,11.60
2008,07,08,05,59,11.60
2008,07,08,06,00,11.60
2008,07,08,06,01,11.60
2008,07,08,06,02,11.60
2008,07,08,06,03,11.60
2008,07,08,06,04,11.60
2008,07,08,06,05,11.60
2008,07,08,06,06,11.70
2008,07,08,06,07,11.70
2008,07,08,06,08,11.70
2008,07,08,06,09,11.80
2008,07,08,06,10,11.80
2008,07,08,06,11,11.80
2008,07,08,06,12,11.80
2008,07,08,06,13,11.80
2008,07,08,06,14,11.80
2008,07,08,06,15,11.90
2008,07,08,06,16,11.90
2008,07,08,06,17,11.90
2008,07,08,06,18,12.00
2008,07,08,06,19,12.00
2008,07,08,06,20,12.00
2008,07,08,06,21,12.10
2008,07,08,06,22,12.10
2008,07,08,06,23,12.10
2008,07,08,06,24,12.20
2008,07,08,06,25,12.20
2008,07,08,06,26,12.30
2008,07,08,06,27,12.30
2008,07,08,06,28,12.30
2008,07,08,06,29,12.30
2008,07,08,06,30,12.30
2008,07,08,06,31,12.40
2008,07,08,06,32,12.40
2008,07,08,06,33,12.40
2008,07,08,06,34,12.50
2008,07,08,06,35,12.50
2008,07,08,06,36,12.60
2008,07,08,06,37,12.70
2008,07,08,06,38,12.70
2008,07,08,06,39,12.80
2008,07,08,06,40,12.80
2008,07,08,06,41,12.80
2008,07,08,06,42,12.90
2008,07,08,06,43,12.90
2008,07,08,06,44,12.90
2008,07,08,06,45,13.00
2008,07,08,06,46,13.00
2008,07,08,06,47,13.10
2008,07,08,06,48,13.10
2008,07,08,06,49,13.20
2008,07,08,06,50,13.20
2008,07,08,06,51,13.30
2008,07,08,06,52,13.30
2008,07,08,06,53,13.30
2008,07,08,06,54,13.40
2008,07,08,06,55,13.40
2008,07,08,06,56,13.50
2008,07,08,06,57,13.50
2008,07,08,06,58,13.60
2008,07,08,06,59,13.60
2008,07,08,07,00,13.60
2008,07,08,07,01,13.70
2008,07,08,07,02,13.70
2008,07,08,07,03,13.70
2008,07,08,07,04,13.80
2008,07,08,07,05,13.80
2008,07,08,07,06,13.90
2008,07,08,07,07,13.90
2008,07,08,07,08,13.90
2008,07,08,07,09,14.00
2008,07,08,07,10,14.00
2008,07,08,07,11,14.10
2008,07,08,07,12,14.10
2008,07,08,07,13,14.20
2008,07,08,07,14,14.20
2008,07,08,07,15,14.20
2008,07,08,07,16,14.30
2008,07,08,07,17,14.40
2008,07,08,07,18,14.50
2008,07,08,07,19,14.60
2008,07,08,07,20,14.80
2008,07,08,07,21,14.90
2008,07,08,07,22,15.10
2008,07,08,07,23,15.20
2008,07,08,07,24,15.30
2008,07,08,07,25,15.30
2008,07,08,07,26,15.50
2008,07,08,07,27,15.60
2008,07,08,07,28,15.60
2008,07,08,07,29,15.80
2008,07,08,07,30,15.80
2008,07,08,07,31,15.80
2008,07,08,07,32,15.80
2008,07,08,07,33,15.90
2008,07,08,07,34,15.90
2008,07,08,07,35,15.90
2008,07,08,07,36,16.00
2008,07,08,07,37,16.10
2008,07,08,07,38,16.10
2008,07,08,07,39,16.20
2008,07,08,07,40,16.20
2008,07,08,07,41,16.30
2008,07,08,07,42,16.30
2008,07,08,07,43,16.40
2008,07,08,07,44,16.40
2008,07,08,07,45,16.40
2008,07,08,07,46,16.40
2008,07,08,07,47,16.40
2008,07,08,07,48,16.40
2008,07,08,07,49,16.40
2008,07,08,07,50,16.40
2008,07,08,07,51,16.40
2008,07,08,07,52,16.40
2008,07,08,07,53,16.50
2008,07,08,07,54,16.60
2008,07,08,07,55,16.60
2008,07,08,07,56,16.60
2008,07,08,07,57,16.60
2008,07,08,07,58,16.60
2008,07,08,07,59,16.60
2008,07,08,08,00,16.60
2008,07,08,08,01,16.70
2008,07,08,08,02,16.70
2008,07,08,08,03,16.70
2008,07,08,08,04,16.70
2008,07,08,08,05,16.80
2008,07,08,08,06,16.90
2008,07,08,08,07,16.90
2008,07,08,08,08,17.00
2008,07,08,08,09,17.00
2008,07,08,08,10,17.00
2008,07,08,08,11,17.00
2008,07,08,08,12,17.10
2008,07,08,08,13,17.10
2008,07,08,08,14,17.10
2008,07,08,08,15,17.20
2008,07,08,08,16,17.10
2008,07,08,08,17,17.10
2008,07,08,08,18,17.10
2008,07,08,08,19,17.10
2008,07,08,08,20,17.20
2008,07,08,08,21,17.20
2008,07,08,08,22,17.30
2008,07,08,08,23,17.40
2008,07,08,08,24,17.40
2008,07,08,08,25,17.60
2008,07,08,08,26,17.60
2008,07,08,08,27,17.70
2008,07,08,08,28,17.70
2008,07,08,08,29,17.70
2008,07,08,08,30,17.70
2008,07,08,08,31,17.60
2008,07,08,08,32,17.60
2008,07,08,08,33,17.70
2008,07,08,08,34,17.70
2008,07,08,08,35,17.70
2008,07,08,08,36,17.70
2008,07,08,08,37,17.70
2008,07,08,08,38,17.70
2008,07,08,08,39,17.80
2008,07,08,08,40,17.90
2008,07,08,08,41,17.90
2008,07,08,08,42,17.90
2008,07,08,08,43,17.90
2008,07,08,08,44,17.90
2008,07,08,08,45,17.90
2008,07,08,08,46,17.90
2008,07,08,08,47,17.90
2008,07,08,08,48,18.10
2008,07,08,08,49,18.10
2008,07,08,08,50,18.20
2008,07,08,08,51,18.20
2008,07,08,08,52,18.20
2008,07,08,08,53,18.20
2008,07,08,08,54,18.20
2008,07,08,08,55,18.20
2008,07,08,08,56,18.20
2008,07,08,08,57,18.20
2008,07,08,08,58,18.20
2008,07,08,08,59,18.20
2008,07,08,09,00,18.20
2008,07,08,09,01,18.20
2008,07,08,09,02,18.20
2008,07,08,09,03,18.20
2008,07,08,09,04,18.30
2008,07,08,09,05,18.40
2008,07,08,09,06,18.40
2008,07,08,09,07,18.50
2008,07,08,09,08,18.50
2008,07,08,09,09,18.60
2008,07,08,09,10,18.60
2008,07,08,09,11,18.70
2008,07,08,09,12,18.80
2008,07,08,09,13,18.90
2008,07,08,09,14,18.90
2008,07,08,09,15,18.90
2008,07,08,09,16,18.90
2008,07,08,09,17,18.90
2008,07,08,09,18,18.90
2008,07,08,09,19,18.90
2008,07,08,09,20,18.90
2008,07,08,09,21,19.00
2008,07,08,09,22,19.10
2008,07,08,09,23,19.10
2008,07,08,09,24,19.10
2008,07,08,09,25,19.10
2008,07,08,09,26,19.20
2008,07,08,09,27,19.20
2008,07,08,09,28,19.30
2008,07,08,09,29,19.30
2008,07,08,09,30,19.40
2008,07,08,09,31,19.50
2008,07,08,09,32,19.60
2008,07,08,09,33,19.60
2008,07,08,09,34,19.60
2008,07,08,09,35,19.60
2008,07,08,09,36,19.50
2008,07,08,09,37,19.30
2008,07,08,09,38,19.30
2008,07,08,09,39,19.40
2008,07,08,09,40,19.50
2008,07,08,09,41,19.70
2008,07,08,09,42,19.90
2008,07,08,09,43,20.00
2008,07,08,09,44,20.10
2008,07,08,09,45,20.20
2008,07,08,09,46,20.30
2008,07,08,09,47,20.30
2008,07,08,09,48,20.30
2008,07,08,09,49,20.40
2008,07,08,09,50,20.40
2008,07,08,09,51,20.50
2008,07,08,09,52,20.50
2008,07,08,09,53,20.50
2008,07,08,09,54,20.40
2008,07,08,09,55,20.30
2008,07,08,09,56,20.30
2008,07,08,09,57,20.30
2008,07,08,09,58,20.40
2008,07,08,09,59,20.50
2008,07,08,10,00,20.50
2008,07,08,10,01,20.70
2008,07,08,10,02,20.70
2008,07,08,10,03,20.80
2008,07,08,10,04,20.90
2008,07,08,10,05,20.90
2008,07,08,10,06,21.00
2008,07,08,10,07,21.10
2008,07,08,10,08,21.20
2008,07,08,10,09,21.30
2008,07,08,10,10,21.30
2008,07,08,10,11,21.40
2008,07,08,10,12,21.40
2008,07,08,10,13,21.30
2008,07,08,10,14,21.30
2008,07,08,10,15,21.30
2008,07,08,10,16,21.30
2008,07,08,10,17,21.40
2008,07,08,10,18,21.50
2008,07,08,10,19,21.60
2008,07,08,10,20,21.60
2008,07,08,10,21,21.60
2008,07,08,10,22,21.60
2008,07,08,10,23,21.60
2008,07,08,10,24,21.60
2008,07,08,10,25,21.60
2008,07,08,10,26,21.70
2008,07,08,10,27,21.80
2008,07,08,10,28,21.90
2008,07,08,10,29,21.90
2008,07,08,10,30,21.80
2008,07,08,10,31,21.70
2008,07,08,10,32,21.60
2008,07,08,10,33,21.60
2008,07,08,10,34,21.60
2008,07,08,10,35,21.60
2008,07,08,10,36,21.50
2008,07,08,10,37,21.30
2008,07,08,10,38,21.30
2008,07,08,10,39,21.30
2008,07,08,10,40,21.30
2008,07,08,10,41,21.30
2008,07,08,10,42,21.40
2008,07,08,10,43,21.40
2008,07,08,10,44,21.50
2008,07,08,10,45,21.60
2008,07,08,10,46,21.60
2008,07,08,10,47,21.60
2008,07,08,10,48,21.50
2008,07,08,10,49,21.40
2008,07,08,10,50,21.40
2008,07,08,10,51,21.40
2008,07,08,10,52,21.40
2008,07,08,10,53,21.40
2008,07,08,10,54,21.40
2008,07,08,10,55,21.40
2008,07,08,10,56,21.40
2008,07,08,10,57,21.40
2008,07,08,10,58,21.30
2008,07,08,10,59,21.30
2008,07,08,11,00,21.30
2008,07,08,11,01,21.30
2008,07,08,11,02,21.30
2008,07,08,11,03,21.40
2008,07,08,11,04,21.60
2008,07,08,11,05,21.60
2008,07,08,11,06,21.60
2008,07,08,11,07,21.80
2008,07,08,11,08,22.00
2008,07,08,11,09,22.10
2008,07,08,11,10,22.10
2008,07,08,11,11,22.20
2008,07,08,11,12,22.30
2008,07,08,11,13,22.30
2008,07,08,11,14,22.30
2008,07,08,11,15,22.20
2008,07,08,11,16,22.20
2008,07,08,11,17,22.20
2008,07,08,11,18,22.10
2008,07,08,11,19,22.10
2008,07,08,11,20,22.10
2008,07,08,11,21,22.20
2008,07,08,11,22,22.20
2008,07,08,11,23,22.30
2008,07,08,11,24,22.40
2008,07,08,11,25,22.30
2008,07,08,11,26,22.20
2008,07,08,11,27,22.30
2008,07,08,11,28,22.40
2008,07,08,11,29,22.50
2008,07,08,11,30,22.60
2008,07,08,11,31,22.60
2008,07,08,11,32,22.60
2008,07,08,11,33,22.70
2008,07,08,11,34,22.50
2008,07,08,11,35,22.30
2008,07,08,11,36,22.30
2008,07,08,11,37,22.20
2008,07,08,11,38,22.30
2008,07,08,11,39,22.40
2008,07,08,11,40,22.60
2008,07,08,11,41,22.80
2008,07,08,11,42,22.70
2008,07,08,11,43,22.70
2008,07,08,11,44,22.80
2008,07,08,11,45,22.80
2008,07,08,11,46,22.90
2008,07,08,11,47,22.80
2008,07,08,11,48,22.80
2008,07,08,11,49,22.80
2008,07,08,11,50,22.80
2008,07,08,11,51,22.90
2008,07,08,11,52,22.90
2008,07,08,11,53,22.90
2008,07,08,11,54,23.10
2008,07,08,11,55,23.20
2008,07,08,11,56,23.40
2008,07,08,11,57,23.60
2008,07,08,11,58,23.60
2008,07,08,11,59,23.70
2008,07,08,12,00,23.70
2008,07,08,12,01,23.80
2008,07,08,12,02,23.90
2008,07,08,12,03,24.10
2008,07,08,12,04,24.10
2008,07,08,12,05,23.70
2008,07,08,12,06,23.70
2008,07,08,12,07,23.60
2008,07,08,12,08,23.60
2008,07,08,12,09,23.40
2008,07,08,12,10,23.40
2008,07,08,12,11,23.40
2008,07,08,12,12,23.50
2008,07,08,12,13,23.40
2008,07,08,12,14,23.60
2008,07,08,12,15,23.60
2008,07,08,12,16,23.40
2008,07,08,12,17,23.30
2008,07,08,12,18,23.30
2008,07,08,12,19,23.30
2008,07,08,12,20,23.40
2008,07,08,12,21,23.60
2008,07,08,12,22,23.60
2008,07,08,12,23,23.50
2008,07,08,12,24,23.50
2008,07,08,12,25,23.60
2008,07,08,12,26,23.50
2008,07,08,12,27,23.60
2008,07,08,12,28,23.50
2008,07,08,12,29,23.30
2008,07,08,12,30,23.40
2008,07,08,12,31,23.30
2008,07,08,12,32,23.20
2008,07,08,12,33,23.10
2008,07,08,12,34,23.10
2008,07,08,12,35,23.30
2008,07,08,12,36,23.30
2008,07,08,12,37,23.30
2008,07,08,12,38,23.40
2008,07,08,12,39,23.40
2008,07,08,12,40,23.40
2008,07,08,12,41,23.30
2008,07,08,12,42,23.30
2008,07,08,12,43,23.20
2008,07,08,12,44,23.00
2008,07,08,12,45,22.90
2008,07,08,12,46,22.90
2008,07,08,12,47,22.90
2008,07,08,12,48,22.80
2008,07,08,12,49,22.60
2008,07,08,12,50,22.40
2008,07,08,12,51,22.60
2008,07,08,12,52,22.80
2008,07,08,12,53,22.90
2008,07,08,12,54,23.00
2008,07,08,12,55,22.90
2008,07,08,12,56,22.90
2008,07,08,12,57,22.90
2008,07,08,12,58,23.00
2008,07,08,12,59,23.10
2008,07,08,13,00,23.30
2008,07,08,13,01,23.10
2008,07,08,13,02,23.00
2008,07,08,13,03,22.80
2008,07,08,13,04,22.90
2008,07,08,13,05,23.00
2008,07,08,13,06,23.10
2008,07,08,13,07,23.20
2008,07,08,13,08,23.30
2008,07,08,13,09,23.30
2008,07,08,13,10,23.40
2008,07,08,13,11,23.30
2008,07,08,13,12,23.10
2008,07,08,13,13,22.90
2008,07,08,13,14,22.90
2008,07,08,13,15,22.80
2008,07,08,13,16,22.90
2008,07,08,13,17,22.90
2008,07,08,13,18,22.90
2008,07,08,13,19,22.90
2008,07,08,13,20,22.80
2008,07,08,13,21,22.90
2008,07,08,13,22,22.90
2008,07,08,13,23,22.90
2008,07,08,13,24,23.00
2008,07,08,13,25,22.90
2008,07,08,13,26,22.90
2008,07,08,13,27,22.90
2008,07,08,13,28,22.90
2008,07,08,13,29,23.00
2008,07,08,13,30,23.10
2008,07,08,13,31,23.20
2008,07,08,13,32,23.30
2008,07,08,13,33,23.40
2008,07,08,13,34,23.30
2008,07,08,13,35,23.30
2008,07,08,13,36,23.20
2008,07,08,13,37,23.20
2008,07,08,13,38,23.10
2008,07,08,13,39,23.10
2008,07,08,13,40,23.20
2008,07,08,13,41,23.30
2008,07,08,13,42,23.40
2008,07,08,13,43,23.40
2008,07,08,13,44,23.20
2008,07,08,13,45,23.10
2008,07,08,13,46,23.10
2008,07,08,13,47,23.10
2008,07,08,13,48,23.10
2008,07,08,13,49,23.00
2008,07,08,13,50,23.00
2008,07,08,13,51,23.10
2008,07,08,13,52,23.00
2008,07,08,13,53,23.00
2008,07,08,13,54,23.20
2008,07,08,13,55,23.30
2008,07,08,13,56,23.50
2008,07,08,13,57,23.70
2008,07,08,13,58,23.80
2008,07,08,13,59,23.90
2008,07,08,14,00,24.00
2008,07,08,14,01,24.00
2008,07,08,14,02,23.90
2008,07,08,14,03,23.70
2008,07,08,14,04,23.50
2008,07,08,14,05,23.40
2008,07,08,14,06,23.20
2008,07,08,14,07,23.20
2008,07,08,14,08,23.10
2008,07,08,14,09,22.90
2008,07,08,14,10,22.80
2008,07,08,14,11,22.90
2008,07,08,14,12,23.10
2008,07,08,14,13,23.20
2008,07,08,14,14,23.20
2008,07,08,14,15,23.10
2008,07,08,14,16,23.10
2008,07,08,14,17,23.00
2008,07,08,14,18,22.90
2008,07,08,14,19,23.00
2008,07,08,14,20,23.10
2008,07,08,14,21,23.00
2008,07,08,14,22,23.10
2008,07,08,14,23,23.20
2008,07,08,14,24,23.10
2008,07,08,14,25,22.90
2008,07,08,14,26,22.70
2008,07,08,14,27,22.50
2008,07,08,14,28,22.20
2008,07,08,14,29,22.10
2008,07,08,14,30,22.10
2008,07,08,14,31,22.10
2008,07,08,14,32,22.10
2008,07,08,14,33,22.20
2008,07,08,14,34,22.20
2008,07,08,14,35,22.30
2008,07,08,14,36,22.40
2008,07,08,14,37,22.70
2008,07,08,14,38,23.00
2008,07,08,14,39,23.10
2008,07,08,14,40,23.10
2008,07,08,14,41,23.10
2008,07,08,14,42,23.10
2008,07,08,14,43,23.20
2008,07,08,14,44,23.30
2008,07,08,14,45,23.30
2008,07,08,14,46,23.40
2008,07,08,14,47,23.50
2008,07,08,14,48,23.70
2008,07,08,14,49,23.70
2008,07,08,14,50,23.60
2008,07,08,14,51,23.50
2008,07,08,14,52,23.40
2008,07,08,14,53,23.40
2008,07,08,14,54,23.50
2008,07,08,14,55,23.60
2008,07,08,14,56,23.80
2008,07,08,14,57,24.00
2008,07,08,14,58,24.20
2008,07,08,14,59,24.30
2008,07,08,15,00,24.50
2008,07,08,15,01,24.60
2008,07,08,15,02,24.60
2008,07,08,15,03,24.70
2008,07,08,15,04,24.80
2008,07,08,15,05,24.80
2008,07,08,15,06,24.90
2008,07,08,15,07,25.10
2008,07,08,15,08,25.30
2008,07,08,15,09,25.40
2008,07,08,15,10,25.50
2008,07,08,15,11,25.90
2008,07,08,15,12,26.00
2008,07,08,15,13,26.20
2008,07,08,15,14,26.20
2008,07,08,15,15,26.30
2008,07,08,15,16,26.40
2008,07,08,15,17,26.60
2008,07,08,15,18,26.80
2008,07,08,15,19,26.70
2008,07,08,15,20,26.60
2008,07,08,15,21,26.50
2008,07,08,15,22,26.40
2008,07,08,15,23,26.40
2008,07,08,15,24,26.40
2008,07,08,15,25,26.50
2008,07,08,15,26,26.60
2008,07,08,15,27,26.60
2008,07,08,15,28,26.60
2008,07,08,15,29,26.60
2008,07,08,15,30,26.50
2008,07,08,15,31,26.40
2008,07,08,15,32,26.50
2008,07,08,15,33,26.60
2008,07,08,15,34,26.60
2008,07,08,15,35,26.60
2008,07,08,15,36,26.60
2008,07,08,15,37,26.60
2008,07,08,15,38,26.60
2008,07,08,15,39,26.60
2008,07,08,15,40,26.60
2008,07,08,15,41,26.60
2008,07,08,15,42,26.50
2008,07,08,15,43,26.40
2008,07,08,15,44,26.40
2008,07,08,15,45,26.30
2008,07,08,15,46,26.20
2008,07,08,15,47,26.20
2008,07,08,15,48,26.30
2008,07,08,15,49,26.30
2008,07,08,15,50,26.20
2008,07,08,15,51,26.20
2008,07,08,15,52,26.20
2008,07,08,15,53,26.20
2008,07,08,15,54,26.30
2008,07,08,15,55,26.30
2008,07,08,15,56,26.30
2008,07,08,15,57,26.40
2008,07,08,15,58,26.40
2008,07,08,15,59,26.50
2008,07,08,16,00,26.60
2008,07,08,16,01,26.60
2008,07,08,16,02,26.60
2008,07,08,16,03,26.60
2008,07,08,16,04,26.60
2008,07,08,16,05,26.60
2008,07,08,16,06,26.60
2008,07,08,16,07,26.60
2008,07,08,16,08,26.60
2008,07,08,16,09,26.60
2008,07,08,16,10,26.60
2008,07,08,16,11,26.50
2008,07,08,16,12,26.40
2008,07,08,16,13,26.20
2008,07,08,16,14,26.20
2008,07,08,16,15,26.10
2008,07,08,16,16,26.10
2008,07,08,16,17,26.10
2008,07,08,16,18,26.10
2008,07,08,16,19,26.20
2008,07,08,16,20,26.20
2008,07,08,16,21,26.20
2008,07,08,16,22,26.30
2008,07,08,16,23,26.30
2008,07,08,16,24,26.30
2008,07,08,16,25,26.50
2008,07,08,16,26,26.60
2008,07,08,16,27,26.70
2008,07,08,16,28,26.70
2008,07,08,16,29,26.70
2008,07,08,16,30,26.70
2008,07,08,16,31,26.70
2008,07,08,16,32,26.80
2008,07,08,16,33,26.90
2008,07,08,16,34,26.90
2008,07,08,16,35,26.90
2008,07,08,16,36,27.00
2008,07,08,16,37,27.10
2008,07,08,16,38,27.10
2008,07,08,16,39,27.20
2008,07,08,16,40,27.10
2008,07,08,16,41,27.00
2008,07,08,16,42,26.90
2008,07,08,16,43,26.80
2008,07,08,16,44,26.80
2008,07,08,16,45,26.80
2008,07,08,16,46,26.70
2008,07,08,16,47,26.80
2008,07,08,16,48,26.80
2008,07,08,16,49,26.70
2008,07,08,16,50,26.70
2008,07,08,16,51,26.60
2008,07,08,16,52,26.60
2008,07,08,16,53,26.60
2008,07,08,16,54,26.60
2008,07,08,16,55,26.60
2008,07,08,16,56,26.60
2008,07,08,16,57,26.60
2008,07,08,16,58,26.60
2008,07,08,16,59,26.60
2008,07,08,17,00,26.60
2008,07,08,17,01,26.60
2008,07,08,17,02,26.50
2008,07,08,17,03,26.40
2008,07,08,17,04,26.30
2008,07,08,17,05,26.20
2008,07,08,17,06,26.10
2008,07,08,17,07,26.10
2008,07,08,17,08,26.00
2008,07,08,17,09,26.00
2008,07,08,17,10,26.00
2008,07,08,17,11,25.90
2008,07,08,17,12,25.70
2008,07,08,17,13,25.70
2008,07,08,17,14,25.70
2008,07,08,17,15,25.60
2008,07,08,17,16,25.60
2008,07,08,17,17,25.60
2008,07,08,17,18,25.70
2008,07,08,17,19,25.70